1520172000.86,48303,10.88,72062.8,-1.25,-41.41,-40.97,0,*50
1520172002.09,48304,10.88,72058.5,-1.23,-41.17,-40.73,0,*58
1520172003.3,48305,10.88,72056.3,-1.25,-41.03,-40.53,0,*58
1520172004.5,48306,10.88,72056.3,-1.25,-40.53,-40.15,0,*5D
1520172005.72,48307,10.88,72056.8,-1.25,-40.03,-39.59,0,*5F
1520172006.96,48308,10.88,72060.8,-1.25,-41.03,-40.41,0,*56
1520172008.21,48309,10.88,72062.3,-1.25,-41.23,-40.79,0,*5E
1520172009.44,48310,10.88,72058.5,-1.25,-41.35,-40.73,0,*5B
1520172010.69,48311,10.88,72062.3,-1.27,-40.65,-40.09,0,*51
1520172011.95,48312,10.88,72058.5,-1.29,-40.97,-40.29,0,*53
1520172013.22,48313,10.88,72062.8,-1.27,-40.79,-40.21,0,*54
1520172014.5,48314,10.88,72060.0,-1.27,-40.79,-40.29,0,*5B
1520172015.78,48315,10.88,72060.0,-1.27,-40.59,-40.09,0,*5A
1520172017.0,48316,10.88,72060.3,-1.25,-40.73,-40.21,0,*59
1520172018.22,48317,10.88,72060.3,-1.25,-40.53,-39.97,0,*59
1520172019.48,48318,10.88,72056.3,-1.27,-40.47,-40.09,0,*58
1520172020.73,48319,10.88,72060.3,-1.25,-40.97,-40.41,0,*5A
1520172021.99,48320,10.88,72060.0,-1.25,-41.35,-40.79,0,*52
1520172023.21,48321,10.88,72062.0,-1.27,-41.11,-40.65,0,*5A
1520172024.47,48322,10.88,72060.8,-1.27,-40.97,-40.47,0,*56
1520172025.75,48323,10.88,72060.8,-1.27,-40.85,-40.21,0,*54
1520172027.01,48324,10.88,72060.5,-1.27,-41.03,-40.59,0,*53
1520172028.28,48325,10.88,72060.3,-1.27,-41.61,-40.97,0,*54
1520172029.54,48326,10.88,72060.0,-1.27,-41.67,-41.29,0,*55
1520172030.77,48327,10.94,72062.5,-1.29,-41.61,-41.23,0,*56
1520172032.01,48328,10.88,72058.5,-1.29,-41.61,-41.23,0,*59
1520172033.24,48329,10.88,72062.3,-1.29,-41.81,-41.29,0,*5C
1520172034.48,48330,10.88,72062.0,-1.31,-41.87,-41.29,0,*5B
1520172035.73,48331,10.88,72062.8,-1.35,-41.29,-40.85,0,*5D
1520172037.0,48332,10.88,72060.3,-1.31,-41.55,-41.03,0,*5E
1520172038.28,48333,10.88,72060.8,-1.31,-42.05,-41.55,0,*5A
1520172039.54,48334,10.88,72058.8,-1.35,-41.35,-41.03,0,*5A
1520172040.77,48335,10.88,72062.3,-1.35,-41.29,-40.73,0,*50
1520172042.04,48336,10.88,72062.5,-1.39,-41.61,-40.97,0,*59
1520172043.28,48337,10.88,72060.3,-1.41,-41.49,-40.97,0,*5D
1520172044.54,48338,10.88,72060.8,-1.39,-41.11,-40.41,0,*5B
1520172045.82,48339,10.88,72060.3,-1.39,-41.23,-40.59,0,*52
1520172047.12,48340,10.88,72062.3,-1.39,-41.23,-40.59,0,*5C
1520172048.4,48341,10.88,72062.3,-1.39,-41.23,-40.59,0,*5D
1520172049.68,48342,10.88,72056.3,-1.39,-40.59,-39.97,0,*5E
1520172050.94,48343,10.88,72062.5,-1.39,-40.59,-40.15,0,*5B
1520172052.19,48344,10.88,72062.3,-1.35,-40.65,-39.97,0,*5B
1520172053.44,48345,10.94,72066.3,-1.35,-40.53,-39.97,0,*5F
1520172054.68,48346,10.88,72060.0,-1.35,-40.65,-40.29,0,*52
1520172055.94,48347,10.88,72056.5,-1.35,-40.35,-39.79,0,*5D
1520172057.2,48348,10.88,72058.3,-1.35,-40.35,-39.79,0,*52
1520172058.45,48349,10.94,72062.0,-1.35,-40.65,-40.29,0,*5D
1520172059.67,48350,10.88,72062.8,-1.35,-41.11,-40.65,0,*5F
1520172060.94,48351,10.88,72062.0,-1.35,-41.67,-41.11,0,*5D
1520172062.2,48352,10.88,72062.3,-1.35,-41.67,-41.03,0,*5D
1520172063.44,48353,10.88,72062.5,-1.39,-41.73,-41.11,0,*56
1520172064.7,48354,10.88,72060.8,-1.39,-41.55,-41.11,0,*55
1520172065.9,48355,10.88,72058.0,-1.41,-41.99,-41.61,0,*5C
1520172067.14,48356,10.88,72060.5,-1.39,-42.13,-41.61,0,*51
1520172068.43,48357,10.88,72062.3,-1.43,-42.45,-42.19,0,*52
1520172069.68,48358,10.88,72062.8,-1.45,-42.45,-41.93,0,*5A
1520172070.92,48359,10.88,72060.0,-1.45,-42.51,-42.05,0,*52
1520172072.15,48360,10.88,72060.0,-1.47,-42.75,-42.37,0,*5D
1520172073.41,48361,10.88,72062.0,-1.47,-42.51,-41.93,0,*57
1520172074.67,48362,10.88,72062.5,-1.49,-41.99,-41.55,0,*57
1520172075.91,48363,10.88,72062.3,-1.47,-41.61,-41.17,0,*59
1520172077.16,48364,10.88,72056.8,-1.49,-41.81,-41.29,0,*53
1520172078.4,48365,10.88,72062.8,-1.49,-41.73,-41.17,0,*52
1520172079.63,48366,10.88,72062.3,-1.49,-41.61,-41.17,0,*52
1520172080.87,48367,10.88,72062.5,-1.51,-41.87,-41.23,0,*55
1520172082.13,48368,10.94,72060.5,-1.51,-41.81,-41.23,0,*5C
1520172083.4,48369,10.88,72060.0,-1.53,-42.25,-41.67,0,*52
1520172084.67,48370,10.88,72062.5,-1.53,-42.25,-41.67,0,*5A
1520172085.9,48371,10.88,72062.8,-1.53,-41.99,-41.61,0,*59
1520172087.16,48372,10.88,72060.5,-1.53,-42.63,-42.19,0,*50
1520172088.42,48373,10.88,72062.0,-1.59,-42.45,-41.93,0,*5E
1520172089.66,48374,10.88,72062.3,-1.59,-42.05,-41.41,0,*52
1520172090.89,48375,10.88,72062.3,-1.59,-42.05,-41.41,0,*53
1520172092.17,48376,10.88,72060.5,-1.59,-41.23,-40.85,0,*5E
1520172093.38,48377,10.88,72060.8,-1.59,-41.73,-41.11,0,*56
1520172094.6,48378,10.88,72060.3,-1.59,-41.73,-41.29,0,*52
1520172095.81,48379,10.88,72058.8,-1.59,-41.73,-41.29,0,*53
1520172097.06,48380,10.94,72060.5,-1.59,-42.13,-41.67,0,*5A
1520172098.32,48381,10.94,72060.8,-1.63,-41.93,-41.35,0,*5E
1520172099.59,48382,10.94,72062.5,-1.63,-42.31,-41.81,0,*59
1520172100.82,48383,10.88,72060.3,-1.63,-42.69,-42.13,0,*5D
1520172102.05,48384,10.94,72062.5,-1.63,-42.69,-42.13,0,*5A
1520172103.28,48385,10.94,72062.0,-1.67,-42.05,-41.49,0,*59
1520172104.58,48386,10.94,72062.5,-1.65,-41.35,-40.85,0,*59
1520172105.84,48387,10.94,72062.5,-1.67,-41.93,-41.23,0,*5B
1520172107.05,48388,10.94,72058.8,-1.67,-41.73,-41.11,0,*5B
1520172108.32,48389,10.88,72058.3,-1.65,-41.99,-41.35,0,*5A
1520172109.53,48390,10.88,72060.3,-1.67,-42.25,-41.61,0,*55
1520172110.76,48391,10.94,72058.5,-1.65,-41.99,-41.41,0,*50
1520172112.03,48392,10.88,72056.8,-1.69,-41.87,-41.23,0,*54
1520172113.27,48393,10.88,72062.3,-1.69,-41.49,-41.03,0,*55
1520172114.51,48394,10.94,72058.8,-1.69,-41.61,-41.03,0,*58
1520172115.72,48395,10.94,72060.3,-1.71,-41.99,-41.49,0,*59
1520172116.98,48396,10.88,72058.5,-1.69,-41.73,-41.23,0,*5B
1520172118.24,48397,10.88,72058.5,-1.69,-41.93,-41.29,0,*5E
1520172119.48,48398,10.94,72060.0,-1.71,-41.81,-41.29,0,*5B
1520172120.73,48399,10.88,72058.3,-1.69,-41.61,-41.03,0,*55
1520172121.96,48400,10.88,72058.3,-1.69,-41.11,-40.47,0,*54
1520172123.2,48401,10.88,72058.3,-1.69,-41.87,-41.11,0,*58
1520172124.47,48402,10.88,72056.5,-1.71,-42.19,-41.67,0,*57
1520172125.71,48403,10.94,72058.8,-1.71,-41.67,-41.11,0,*5D
1520172126.96,48404,10.94,72062.0,-1.71,-42.13,-41.67,0,*5B
1520172128.19,48405,10.94,72062.3,-1.73,-42.13,-41.49,0,*54
1520172129.42,48406,10.94,72062.3,-1.73,-41.73,-41.17,0,*59
1520172130.66,48407,10.94,72060.5,-1.75,-41.99,-41.35,0,*5A
1520172131.93,48408,10.94,72060.5,-1.73,-41.73,-40.97,0,*5E
1520172133.16,48409,10.94,72062.3,-1.73,-41.49,-40.91,0,*50
1520172134.43,48410,10.88,72056.8,-1.75,-40.97,-40.59,0,*58
1520172135.63,48411,10.94,72064.3,-1.75,-40.65,-40.03,0,*5B
1520172136.91,48412,10.88,72054.8,-1.73,-40.41,-39.97,0,*5B
1520172138.19,48413,10.94,72060.5,-1.73,-40.59,-39.97,0,*53
1520172139.47,48414,10.94,72062.8,-1.73,-40.59,-39.97,0,*54
1520172140.74,48415,10.94,72060.8,-1.73,-40.29,-39.71,0,*5A
1520172142.0,48416,10.88,72058.0,-1.73,-40.73,-40.09,0,*57
1520172143.23,48417,10.94,72062.8,-1.73,-41.11,-40.53,0,*5C
1520172144.47,48418,10.94,72062.8,-1.75,-41.87,-41.23,0,*5C
1520172145.76,48419,10.94,72062.0,-1.73,-41.55,-40.97,0,*5A
1520172147.04,48420,10.94,72062.0,-1.73,-40.59,-40.09,0,*5A
1520172148.33,48421,10.94,72060.0,-1.73,-40.59,-40.09,0,*5B
1520172149.55,48422,10.94,72064.5,-1.73,-40.73,-40.15,0,*5D
1520172150.78,48423,10.88,72056.5,-1.73,-41.29,-40.73,0,*52
1520172152.04,48424,10.94,72062.8,-1.73,-40.97,-40.53,0,*53
1520172153.29,48425,10.94,72062.8,-1.73,-40.73,-40.09,0,*57
1520172154.55,48426,10.94,72062.0,-1.73,-40.97,-40.53,0,*51
1520172155.83,48427,10.88,72058.8,-1.73,-40.79,-40.09,0,*5F
1520172157.08,48428,10.94,72062.5,-1.73,-40.73,-40.29,0,*58
1520172158.37,48429,10.94,72062.5,-1.73,-40.41,-39.59,0,*51
1520172159.63,48430,10.94,72060.5,-1.73,-40.15,-39.41,0,*51
1520172160.88,48431,10.94,72062.0,-1.73,-40.09,-39.35,0,*5E
1520172162.11,48432,10.94,72060.0,-1.69,-39.91,-39.35,0,*59
1520172163.37,48433,10.94,72060.5,-1.69,-39.91,-39.29,0,*55
1520172164.64,48434,10.94,72062.0,-1.69,-40.09,-39.65,0,*55
1520172165.89,48435,10.88,72056.5,-1.69,-40.03,-39.29,0,*56
1520172167.18,48436,10.94,72060.5,-1.69,-39.71,-39.15,0,*51
1520172168.41,48437,10.94,72056.3,-1.67,-40.21,-39.65,0,*52
1520172169.61,48438,10.94,72062.8,-1.67,-40.53,-40.03,0,*56
1520172170.82,48439,10.94,72062.0,-1.67,-40.91,-40.35,0,*5C
1520172172.06,48440,10.94,72060.8,-1.69,-40.91,-40.47,0,*59
1520172173.32,48441,10.94,72060.0,-1.67,-40.85,-40.21,0,*53
1520172174.58,48442,10.94,72060.0,-1.67,-40.85,-40.21,0,*50
1520172175.78,48443,10.94,72062.3,-1.67,-40.65,-40.03,0,*5F
1520172177.01,48444,10.94,72060.3,-1.67,-41.23,-40.65,0,*5B
1520172178.25,48445,10.94,72064.8,-1.67,-41.23,-40.65,0,*5A
1520172179.47,48446,10.94,72060.8,-1.67,-41.73,-41.11,0,*5E
1520172180.72,48447,10.94,72062.3,-1.69,-42.05,-41.61,0,*54
1520172181.96,48448,10.94,72060.0,-1.71,-41.99,-41.35,0,*55
1520172183.18,48449,10.94,72060.5,-1.71,-41.73,-41.11,0,*56
1520172184.43,48450,10.94,72060.0,-1.73,-41.99,-41.55,0,*58
1520172185.69,48451,10.94,72062.0,-1.73,-42.31,-41.49,0,*55
1520172186.93,48452,10.94,72060.0,-1.75,-41.87,-41.23,0,*52
1520172188.17,48453,10.94,72062.3,-1.75,-41.81,-41.17,0,*52
1520172189.38,48454,10.94,72058.5,-1.75,-42.37,-41.61,0,*5A
1520172190.62,48455,10.94,72058.3,-1.75,-42.45,-41.73,0,*5D
1520172191.83,48456,10.94,72062.0,-1.75,-42.25,-41.61,0,*5B
1520172193.1,48457,10.94,72062.8,-1.77,-41.87,-41.23,0,*55
1520172194.31,48458,10.94,72062.5,-1.81,-41.99,-41.29,0,*56
1520172195.54,48459,10.94,72060.5,-1.81,-42.57,-41.87,0,*52
1520172196.77,48460,10.94,72062.3,-1.81,-41.17,-40.59,0,*5D
1520172198.0,48461,10.94,72060.0,-1.81,-41.29,-40.59,0,*51
1520172199.23,48462,10.94,72060.8,-1.81,-41.35,-40.73,0,*57
1520172200.46,48463,10.94,72056.5,-1.83,-41.11,-40.35,0,*50
1520172201.69,48464,10.94,72058.5,-1.81,-40.79,-40.15,0,*58
1520172202.98,48465,10.94,72060.8,-1.77,-40.41,-39.79,0,*5F
1520172204.2,48466,10.94,72058.3,-1.81,-40.47,-39.79,0,*53
1520172205.47,48467,10.94,72056.3,-1.77,-40.41,-39.65,0,*50
1520172206.67,48468,10.94,72058.3,-1.81,-40.53,-39.91,0,*5E
1520172207.9,48469,10.94,72060.8,-1.77,-40.47,-39.85,0,*56
1520172209.13,48470,10.94,72058.8,-1.81,-40.97,-40.47,0,*5A
1520172210.42,48471,10.94,72058.8,-1.77,-40.97,-40.41,0,*54
1520172211.65,48472,10.94,72060.0,-1.77,-41.17,-40.47,0,*58
1520172212.94,48473,10.94,72056.5,-1.77,-40.97,-40.21,0,*50
1520172214.16,48474,10.94,72060.3,-1.81,-40.53,-39.79,0,*55
1520172215.42,48475,10.88,72058.0,-1.77,-40.65,-39.97,0,*58
1520172216.68,48476,10.94,72062.0,-1.77,-40.47,-39.79,0,*5B
1520172217.94,48477,10.94,72060.8,-1.77,-40.41,-39.65,0,*51
1520172219.18,48478,10.94,72060.0,-1.75,-40.41,-39.85,0,*52
1520172220.41,48479,10.94,72056.3,-1.77,-40.47,-39.85,0,*57
1520172221.67,48480,10.94,72058.0,-1.77,-40.35,-39.59,0,*55
1520172222.87,48481,10.94,72056.3,-1.75,-40.35,-39.47,0,*59
1520172224.13,48482,10.94,72062.0,-1.75,-40.59,-39.97,0,*5D
1520172225.33,48483,10.94,72060.0,-1.75,-40.65,-40.03,0,*50
1520172226.57,48484,10.94,72060.0,-1.75,-41.23,-40.47,0,*54
1520172227.8,48485,10.94,72060.8,-1.75,-40.65,-39.97,0,*55
1520172229.02,48486,10.94,72058.5,-1.75,-40.79,-40.03,0,*58
1520172230.25,48487,10.94,72060.3,-1.73,-40.73,-40.15,0,*52
1520172231.48,48488,10.94,72060.8,-1.75,-40.59,-40.03,0,*54
1520172232.72,48489,10.94,72056.3,-1.75,-40.15,-39.29,0,*5B
1520172233.96,48490,10.94,72058.3,-1.75,-40.35,-39.59,0,*56
1520172235.22,48491,10.94,72060.8,-1.73,-40.15,-39.59,0,*53
1520172236.47,48492,10.94,72060.3,-1.73,-40.53,-39.97,0,*50
1520172237.73,48493,10.94,72062.3,-1.73,-40.35,-39.71,0,*59
1520172238.99,48494,10.94,72060.8,-1.73,-40.15,-39.41,0,*5F
1520172240.26,48495,10.94,72058.8,-1.73,-40.79,-40.29,0,*54
1520172241.54,48496,10.94,72062.8,-1.73,-40.59,-39.97,0,*5E
1520172242.82,48497,10.94,72062.5,-1.73,-40.29,-39.59,0,*5A
1520172244.08,48498,10.94,72062.3,-1.75,-40.41,-39.79,0,*5F
1520172245.34,48499,10.94,72062.0,-1.73,-40.35,-39.79,0,*5B
1520172246.61,48500,10.94,72060.0,-1.69,-40.21,-39.53,0,*5C
1520172247.86,48501,10.94,72062.3,-1.71,-40.29,-39.41,0,*5F
1520172249.1,48502,10.94,72062.5,-1.71,-40.15,-39.53,0,*50
1520172250.36,48503,10.94,72060.8,-1.71,-40.59,-39.97,0,*51
1520172251.64,48504,10.94,72058.0,-1.69,-40.85,-40.09,0,*57
1520172252.88,48505,10.94,72060.3,-1.71,-41.11,-40.41,0,*5F
1520172254.14,48506,10.94,72060.5,-1.69,-41.23,-40.47,0,*52
1520172255.39,48507,10.94,72062.5,-1.71,-41.67,-40.91,0,*51
1520172256.63,48508,10.94,72062.8,-1.71,-41.67,-40.91,0,*5E
1520172257.84,48509,10.94,72062.0,-1.75,-42.37,-41.61,0,*53
1520172259.08,48510,10.94,72060.3,-1.75,-41.41,-40.79,0,*51
1520172260.32,48511,10.94,72062.0,-1.75,-41.61,-40.97,0,*52
1520172261.56,48512,10.94,72062.8,-1.75,-41.41,-40.79,0,*53
1520172262.79,48513,10.94,72064.8,-1.75,-40.65,-39.97,0,*5B
1520172264.03,48514,10.94,72060.3,-1.75,-41.03,-40.59,0,*51
1520172265.24,48515,10.94,72062.0,-1.75,-41.03,-40.35,0,*5A
1520172266.51,48516,10.94,72060.3,-1.77,-41.35,-40.65,0,*5B
1520172267.75,48517,10.94,72062.0,-1.77,-41.87,-41.03,0,*52
1520172268.99,48518,10.94,72062.8,-1.77,-41.41,-40.65,0,*56
1520172270.26,48519,10.94,72062.0,-1.77,-41.41,-40.59,0,*58
1520172271.53,48520,10.94,72062.8,-1.77,-41.81,-41.17,0,*55
1520172272.8,48521,10.94,72062.8,-1.77,-41.73,-40.97,0,*50
1520172274.0,48522,10.94,72062.0,-1.81,-41.99,-41.29,0,*5A
1520172275.21,48523,10.94,72058.5,-1.81,-42.13,-41.49,0,*5C
1520172276.5,48524,10.94,72058.3,-1.83,-42.31,-41.67,0,*55
1520172277.73,48525,10.94,72060.5,-1.85,-41.99,-41.35,0,*54
1520172278.94,48526,10.94,72060.3,-1.85,-42.37,-41.73,0,*52
1520172280.19,48527,10.94,72062.0,-1.85,-42.57,-41.81,0,*58
1520172281.41,48528,10.94,72062.0,-1.85,-43.29,-42.37,0,*51
1520172282.69,48529,10.94,72060.0,-1.87,-42.57,-41.81,0,*54
1520172283.92,48530,10.94,72060.3,-1.89,-42.45,-41.61,0,*5F
1520172285.13,48531,10.94,72062.8,-1.89,-41.87,-41.29,0,*5F
1520172286.34,48532,10.94,72064.3,-1.89,-41.87,-41.11,0,*57
1520172287.58,48533,10.94,72062.5,-1.91,-42.13,-41.29,0,*5A
1520172288.83,48534,10.94,72060.8,-1.91,-42.05,-41.29,0,*5A
1520172290.04,48535,10.94,72062.8,-1.93,-41.73,-41.11,0,*50
1520172291.3,48536,10.94,72060.5,-1.91,-42.37,-41.55,0,*52
1520172292.54,48537,10.94,72062.0,-1.93,-41.93,-41.11,0,*5C
1520172293.77,48538,10.94,72060.0,-1.91,-41.49,-40.73,0,*53
1520172295.03,48539,10.94,72056.8,-1.91,-41.87,-40.97,0,*5A
1520172296.26,48540,10.94,72060.8,-1.93,-42.05,-41.29,0,*5B
1520172297.5,48541,10.94,72060.0,-1.93,-42.05,-41.29,0,*5A
1520172298.73,48542,10.94,72060.8,-1.93,-42.13,-41.35,0,*53
1520172299.96,48543,10.94,72060.8,-1.93,-41.73,-40.79,0,*5E
1520172301.16,48544,10.94,72062.8,-1.93,-41.29,-40.47,0,*5B
1520172302.41,48545,10.94,72062.8,-1.95,-42.45,-41.61,0,*50
1520172303.65,48546,10.94,72062.3,-1.95,-43.41,-42.75,0,*50
1520172304.87,48547,10.94,72062.5,-1.97,-42.75,-41.93,0,*5E
1520172306.11,48548,10.94,72058.8,-1.97,-42.19,-41.41,0,*54
1520172307.35,48549,10.94,72062.8,-1.99,-41.87,-41.03,0,*59
1520172308.61,48550,10.94,72060.8,-1.99,-41.41,-40.59,0,*55
1520172309.9,48551,10.94,72064.5,-1.99,-41.23,-40.29,0,*57
1520172311.15,48552,10.94,72066.0,-1.97,-40.97,-40.21,0,*5C
1520172312.35,48553,10.94,72062.3,-1.97,-41.03,-40.35,0,*54
1520172313.58,48554,10.94,72062.0,-1.97,-41.55,-40.73,0,*52
1520172314.78,48555,10.94,72060.5,-1.97,-41.41,-40.73,0,*56
1520172316.02,48556,10.94,72062.0,-1.97,-41.23,-40.53,0,*53
1520172317.28,48557,10.94,72062.8,-1.97,-41.35,-40.59,0,*5F
1520172318.51,48558,10.94,72060.8,-1.97,-41.03,-40.21,0,*5A
1520172319.73,48559,10.94,72064.8,-1.97,-40.97,-40.15,0,*50
1520172320.97,48560,10.94,72062.5,-1.97,-41.35,-40.53,0,*51
1520172322.23,48561,10.94,72062.8,-1.95,-41.35,-40.53,0,*52
1520172323.46,48562,10.94,72062.0,-1.97,-41.23,-40.35,0,*54
1520172324.68,48563,10.94,72064.3,-1.97,-41.41,-40.79,0,*59
1520172325.94,48564,10.94,72060.5,-1.97,-42.19,-41.35,0,*59
1520172327.18,48565,10.94,72060.0,-1.97,-41.93,-41.03,0,*5C
1520172328.44,48566,10.94,72064.8,-1.99,-42.19,-41.29,0,*58
1520172329.71,48567,10.94,72066.3,-1.99,-41.81,-40.91,0,*59
1520172330.97,48568,10.94,72062.0,-1.99,-42.05,-41.29,0,*5B
1520172332.2,48569,10.94,72060.5,-1.99,-42.25,-41.41,0,*56
1520172333.43,48570,10.94,72062.8,-2.01,-42.45,-41.61,0,*58
1520172334.64,48571,10.94,72060.8,-2.01,-42.25,-41.49,0,*55
1520172335.87,48572,10.94,72062.0,-2.05,-42.05,-41.17,0,*5B
1520172337.11,48573,10.94,72060.0,-2.01,-41.67,-41.03,0,*5C
1520172338.35,48574,10.94,72062.8,-2.05,-41.93,-41.11,0,*57
1520172339.61,48575,10.94,72060.3,-2.07,-42.37,-41.55,0,*59
1520172340.88,48576,10.94,72066.0,-2.07,-42.37,-41.55,0,*5A
1520172342.14,48577,10.94,72066.0,-2.07,-42.51,-41.55,0,*5B
1520172343.41,48578,10.94,72064.3,-2.07,-42.51,-41.67,0,*55
1520172344.71,48579,10.94,72060.0,-2.07,-41.67,-40.85,0,*5F
1520172345.97,48580,10.94,72062.5,-2.09,-41.93,-40.97,0,*5F
1520172347.24,48581,10.94,72062.8,-2.09,-41.81,-40.97,0,*5D
1520172348.5,48582,10.94,72064.3,-2.11,-41.73,-40.97,0,*5A
1520172349.74,48583,10.94,72062.5,-2.09,-42.13,-41.35,0,*5E
1520172351.0,48584,10.94,72060.8,-2.09,-42.19,-41.23,0,*54
1520172352.27,48585,10.94,72062.3,-2.11,-42.13,-41.23,0,*56
1520172353.56,48586,10.94,72064.3,-2.11,-42.19,-41.23,0,*5F
1520172354.79,48587,10.94,72062.5,-2.13,-41.87,-41.11,0,*59
1520172356.03,48588,10.94,72062.3,-2.13,-41.99,-41.11,0,*59
1520172357.27,48589,10.94,72060.8,-2.13,-41.99,-41.03,0,*5B
1520172358.49,48590,10.94,72060.3,-2.13,-41.49,-40.65,0,*5F
1520172359.73,48591,10.94,72060.8,-2.13,-41.99,-41.03,0,*52
1520172361.02,48592,10.94,72062.8,-2.13,-42.05,-41.23,0,*55
1520172362.25,48593,10.94,72062.8,-2.13,-42.37,-41.41,0,*51
1520172363.49,48594,10.94,72064.0,-2.15,-42.25,-41.35,0,*50
1520172364.73,48595,10.94,72060.8,-2.15,-41.35,-40.53,0,*52
1520172365.97,48596,10.94,72062.5,-2.15,-41.35,-40.53,0,*51
1520172367.26,48597,10.94,72060.3,-2.13,-41.23,-40.29,0,*5C
1520172368.46,48598,10.94,72066.5,-2.15,-41.29,-40.65,0,*57
1520172369.72,48599,10.94,72064.3,-2.13,-41.29,-40.41,0,*56
1520172370.97,48600,10.94,72064.5,-2.15,-40.97,-39.97,0,*52
1520172372.17,48601,10.94,72062.5,-2.15,-40.73,-39.85,0,*5A
1520172373.41,48602,10.94,72060.5,-2.15,-40.85,-39.91,0,*55
1520172374.69,48603,10.94,72062.0,-2.13,-40.79,-39.59,0,*55
1520172375.94,48604,10.94,72064.0,-2.13,-40.97,-40.03,0,*53
1520172377.22,48605,10.94,72060.5,-2.13,-41.23,-40.29,0,*54
1520172378.47,48606,10.94,72064.0,-2.13,-40.97,-40.03,0,*51
1520172379.73,48607,10.94,72060.0,-2.13,-41.41,-40.59,0,*55
1520172380.99,48608,10.94,72066.5,-2.13,-41.11,-40.41,0,*56
1520172382.27,48609,10.94,72066.3,-2.13,-40.97,-40.09,0,*54
1520172383.53,48610,10.94,72064.8,-2.13,-41.41,-40.21,0,*5C
1520172384.78,48611,10.94,72062.5,-2.13,-41.49,-40.79,0,*58
1520172386.06,48612,10.94,72060.3,-2.13,-41.23,-40.41,0,*5C
1520172387.32,48613,10.94,72066.8,-2.13,-41.29,-40.29,0,*59
1520172388.58,48614,10.94,72064.0,-2.13,-41.03,-40.09,0,*54
1520172389.84,48615,10.94,72060.3,-2.13,-41.03,-40.09,0,*55
1520172391.08,48616,10.94,72066.5,-2.15,-42.05,-41.03,0,*5E
1520172392.34,48617,10.94,72062.8,-2.13,-42.19,-41.29,0,*5C
1520172393.62,48618,10.94,72062.0,-2.13,-41.67,-40.79,0,*5D
1520172394.88,48619,10.94,72060.8,-2.13,-41.67,-40.73,0,*56
1520172396.12,48620,10.94,72058.3,-2.15,-41.55,-40.65,0,*5C
1520172397.33,48621,10.94,72062.3,-2.15,-40.91,-39.91,0,*51
1520172398.57,48622,10.94,72060.5,-2.15,-41.35,-40.53,0,*5D
1520172399.8,48623,10.94,72064.0,-2.13,-41.11,-40.35,0,*5C
1520172401.0,48624,10.94,72060.8,-2.15,-40.65,-39.85,0,*5A
1520172402.26,48625,10.94,72062.0,-2.15,-40.85,-39.71,0,*5E
1520172403.5,48626,10.94,72062.0,-2.15,-40.91,-40.09,0,*59
1520172404.71,48627,10.94,72064.3,-2.15,-41.11,-40.15,0,*5C
1520172405.97,48628,10.94,72066.3,-2.13,-41.03,-40.21,0,*51
1520172407.17,48629,10.94,72062.0,-2.15,-41.11,-40.15,0,*52
1520172408.41,48630,10.94,72064.0,-2.15,-41.67,-40.65,0,*5C
1520172409.65,48631,10.94,72062.8,-2.15,-41.67,-40.73,0,*5A
1520172410.89,48632,10.94,72060.5,-2.15,-41.35,-40.35,0,*5C
1520172412.15,48633,10.94,72064.3,-2.17,-41.03,-40.09,0,*55
1520172413.36,48634,10.94,72060.5,-2.15,-41.17,-40.15,0,*58
1520172414.61,48635,10.94,72060.8,-2.17,-40.85,-39.85,0,*56
1520172415.84,48636,10.94,72060.8,-2.17,-40.73,-39.65,0,*52
1520172417.07,48637,10.94,72066.5,-2.15,-41.17,-40.09,0,*56
1520172418.31,48638,10.94,72064.8,-2.15,-41.73,-40.85,0,*5F
1520172419.55,48639,10.94,72062.8,-2.15,-41.55,-40.53,0,*51
1520172420.76,48640,10.94,72062.3,-2.15,-41.49,-40.53,0,*52
1520172421.97,48641,10.94,72062.8,-2.15,-41.49,-40.47,0,*56
1520172423.23,48642,10.94,72060.0,-2.19,-41.35,-40.41,0,*54
1520172424.46,48643,10.94,72062.8,-2.17,-41.49,-40.47,0,*56
1520172425.71,48644,10.94,72064.5,-2.17,-40.91,-39.71,0,*5E
1520172426.99,48645,10.94,72066.0,-2.17,-40.85,-39.71,0,*5A
1520172428.22,48646,10.94,72060.8,-2.17,-40.73,-39.65,0,*55
1520172429.45,48647,10.94,72062.8,-2.17,-40.91,-39.85,0,*56
1520172430.71,48648,10.94,72062.0,-2.17,-41.03,-39.97,0,*50
1520172431.93,48649,10.94,72064.5,-2.19,-40.53,-39.59,0,*59
1520172433.15,48650,10.94,72060.0,-2.17,-40.53,-39.47,0,*50
1520172434.37,48651,10.94,72062.0,-2.17,-40.65,-39.65,0,*54
1520172435.62,48652,10.94,72066.3,-2.17,-40.73,-39.71,0,*55
1520172436.88,48653,10.94,72066.5,-2.17,-41.03,-39.97,0,*5A
1520172438.11,48654,10.94,72062.0,-2.15,-40.85,-39.65,0,*5D
1520172439.32,48655,10.94,72064.0,-2.15,-40.65,-39.65,0,*52
1520172440.55,48656,10.94,72064.3,-2.13,-41.03,-40.03,0,*58
1520172441.75,48657,10.94,72064.0,-2.15,-41.29,-40.35,0,*52
1520172443.02,48658,10.94,72062.0,-2.15,-41.35,-40.29,0,*5D
1520172444.27,48659,10.94,72066.3,-2.17,-41.55,-40.53,0,*55
1520172445.5,48660,10.94,72060.8,-2.17,-41.73,-40.73,0,*59
1520172446.74,48661,10.94,72062.5,-2.19,-42.37,-41.35,0,*56
1520172447.99,48662,10.94,72060.5,-2.19,-42.57,-41.55,0,*55
1520172449.27,48663,10.94,72062.5,-2.21,-41.93,-40.79,0,*5B
1520172450.53,48664,10.94,72062.5,-2.21,-41.61,-40.79,0,*51
1520172451.8,48665,10.94,72062.5,-2.21,-41.41,-40.41,0,*59
1520172453.03,48666,10.94,72060.0,-2.23,-41.49,-40.41,0,*50
1520172454.27,48667,10.94,72062.5,-2.23,-41.87,-40.79,0,*58
1520172455.5,48668,10.94,72060.8,-2.23,-40.97,-39.85,0,*5A
1520172456.73,48669,10.94,72064.0,-2.23,-40.79,-39.65,0,*55
1520172458.02,48670,10.94,72062.8,-2.21,-41.23,-40.21,0,*5F
1520172459.23,48671,10.94,72064.3,-2.23,-41.03,-40.03,0,*5E
1520172460.49,48672,10.94,72064.3,-2.23,-40.79,-39.79,0,*52
1520172461.69,48673,10.94,72060.8,-2.23,-40.65,-39.65,0,*53
1520172462.95,48674,10.94,72064.3,-2.21,-41.11,-40.21,0,*5A
1520172464.21,48675,10.94,72062.0,-2.21,-40.97,-39.91,0,*51
1520172465.47,48676,10.94,72062.3,-2.21,-41.55,-40.53,0,*5D
1520172466.67,48677,10.94,72060.3,-2.23,-41.17,-40.03,0,*5D
1520172467.9,48678,10.94,72062.8,-2.23,-40.59,-39.47,0,*57
1520172469.15,48679,10.94,72062.0,-2.21,-40.53,-39.53,0,*5B
1520172470.4,48680,10.94,72060.5,-2.21,-41.23,-40.03,0,*50
1520172471.64,48681,10.94,72062.3,-2.23,-41.41,-40.29,0,*5F
1520172472.88,48682,10.94,72062.5,-2.23,-42.19,-41.17,0,*5E
1520172474.12,48683,10.94,72066.0,-2.23,-42.69,-41.61,0,*59
1520172475.38,48684,10.94,72060.8,-2.23,-41.81,-40.59,0,*51
1520172476.59,48685,10.94,72066.0,-2.27,-41.61,-40.47,0,*55
1520172477.86,48686,10.94,72060.0,-2.29,-41.93,-40.91,0,*5E
1520172479.09,48687,10.94,72064.0,-2.29,-41.73,-40.65,0,*5A
1520172480.38,48688,10.94,72062.0,-2.29,-41.35,-40.29,0,*5F
1520172481.64,48689,10.94,72062.5,-2.29,-41.67,-40.53,0,*54
1520172482.87,48690,10.94,72064.3,-2.29,-41.11,-40.03,0,*58
1520172484.1,48691,10.94,72060.3,-2.29,-41.11,-40.03,0,*59
1520172485.33,48692,10.94,72062.3,-2.29,-41.49,-40.35,0,*52
1520172486.54,48693,10.94,72060.0,-2.27,-41.49,-40.35,0,*5D
1520172487.78,48694,10.94,72064.8,-2.31,-41.67,-40.73,0,*53
1520172488.99,48695,10.94,72064.0,-2.31,-41.73,-40.65,0,*50
1520172490.2,48696,10.94,72062.8,-2.31,-41.29,-40.15,0,*5B
1520172491.47,48697,10.94,72062.5,-2.31,-41.35,-40.29,0,*58
1520172492.68,48698,11.0,72066.8,-2.31,-41.73,-40.73,0,*5A
1520172493.95,48699,11.0,72066.3,-2.33,-41.61,-40.59,0,*52
1520172495.24,48700,10.94,72062.3,-2.33,-41.93,-40.79,0,*5C
1520172496.5,48701,10.94,72062.8,-2.33,-41.29,-40.41,0,*57
1520172497.78,48702,10.94,72062.8,-2.33,-41.81,-40.79,0,*5D